Regional Weather Roundup
Issued by NWS

Home | Current Version | Previous Version | Text Only | Print | Product List | Glossary On
Versions: 1 2 3 4 5 6 7 8 9 10 11 12 13 14 15 16 17 18 19 20 21 22 23 24 25 26 27 28 29 30 31 32 33 34 35 36 37 38 39 40 41 42 43 44 45 46 47 48 49 50
000
ASUS45 KBOU 270607
RWRCO

WEATHER ROUNDUP FOR COLORADO
NATIONAL WEATHER SERVICE DENVER/BOULDER CO
1200 AM MDT FRI MAR 27 2015

NOTE: "FAIR" INDICATES FEW OR NO CLOUDS BELOW 12000 FEET WITH NO
SIGNIFICANT WEATHER AND/OR OBSTRUCTIONS TO VISIBILITY.

COZ001>005-013-030-031-270700-
...NORTHWEST COLORADO...

CITY           SKY/WX    TMP DP  RH WIND       PRES   REMARKS
CRAIG          MOCLDY    41  29  62 SW7       30.33R
HAYDEN         MOCLDY    41  25  52 W6        30.33R
MEEKER         MOCLDY    37  26  64 VRB5      30.34S
MOUNT WERNER   NOT AVBL
STEAMBOAT SPGS MOCLDY    37  29  73 CALM      30.32S
WALDEN         CLOUDY    37  27  65 W3        30.31S
$$

COZ006>008-011-270700-
...WEST CENTRAL VALLEYS...

CITY           SKY/WX    TMP DP  RH WIND       PRES   REMARKS
GRAND JUNCTION CLEAR     43  19  38 E6        30.29R
MONTROSE       CLEAR     41  24  51 SE10      30.35R
EAGLE          MOCLDY    45  28  53 E7        30.34R
RIFLE          PTCLDY    43  23  45 E3        30.31R
DELTA          CLEAR     43  24  47 NE6       30.32R
NUCLA          CLEAR     43  21  42 E12       30.37R
$$

COZ017>023-064>068-270700-
...SOUTHWEST COLORADO...

CITY           SKY/WX    TMP DP  RH WIND       PRES   REMARKS
DURANGO        CLEAR     36  21  54 NE6       30.30R
CORTEZ         CLEAR     35  18  49 E8        30.33R WCI  29
PAGOSA SPRINGS CLEAR     34  20  55 CALM      30.35R
TELLURIDE      NOT AVBL
WOLF CREEK PAS CLEAR     28  12  50 NE21      30.48S WCI  15
$$

COZ009-010-012-014-032>034-037-058>063-270700-
...CENTRAL COLORADO...

CITY           SKY/WX    TMP DP  RH WIND       PRES   REMARKS
ASPEN          CLOUDY    37  27  67 SE5       30.36R
BUENA VISTA    PTCLDY    40  21  47 N5        30.31S
COPPER MTN     CLOUDY    32  21  64 W15G30    30.43S WCI  22
BERTHOUD PASS  CLOUDY    21  14  73 NW40      30.36F HAZE    WCI   1
COTTONWOOD PAS PTCLDY    41  18  38 W16G26    30.35S
GUNNISON       CLEAR     36  19  51 E3        30.39S
KREMMLING      PTCLDY    32  27  80 E8        30.33R WCI  25
LEADVILLE      CLOUDY    34  18  52 NW12G21   30.37S WCI  25
SALIDA         PTCLDY    45  20  37 W7        30.37S
SUNLIGHT       PTCLDY    32  21  64 CALM      30.48S
WILKERSON PASS MOCLDY    30  19  64 W6G20     30.40R WCI  24
$$

COZ069>075-270700-
...SAN LUIS VALLEY/SANGRE DE CRISTO MOUNTAINS...

CITY           SKY/WX    TMP DP  RH WIND       PRES   REMARKS
ALAMOSA        MOCLDY    47  16  29 N20G28    30.28R
LA VETA PASS   MOCLDY    34  19  55 W12G23    30.34F WCI  25
SAGUACHE       PTCLDY    36  19  51 N8        30.34S
$$

COZ035-036-038>040-270700-
...NORTHERN COLORADO FRONT RANGE...

CITY           SKY/WX    TMP DP  RH WIND       PRES   REMARKS
DENVER INTL AP CLOUDY    45  31  58 E10       30.19R
DMNS CITY PARK   N/A     47  31  52 E6        30.18R
AURORA         CLOUDY    45  32  62 E12       30.19R
FRONT RANGE AP NOT AVBL
ERIE MUNI ARPT MOCLDY    47  28  49 NW5       30.21R
BOULDER MUN AP MOCLDY    46  30  53 N6        30.21R
CENTENNIAL     MOCLDY    46  31  55 SE3       30.18R
BROOMFIELD     MOCLDY    46  32  57 N13       30.21R
FORT COLLINS   CLOUDY    46  28  49 S7        30.21S
LONGMONT       CLOUDY    49  31  50 NW3       30.23R
$$

COZ041-046-047-076>085-087-088-270700-
...PIKES PEAK/PALMER DIVIDE AND SOUTHERN FOOTHILLS...

CITY           SKY/WX    TMP DP  RH WIND       PRES   REMARKS
COLO. SPRINGS  MOCLDY    42  25  50 E5        30.22S
A. F. ACADEMY  MOCLDY    38  28  68 N5        30.21S
ELLICOTT       CLOUDY   N/A N/A N/A S8        30.20F
FALCON         CLOUDY    43  23  45 S5        30.23F
FORT CARSON    PTCLDY    40  26  57 W6        30.20R
LIMON          CLOUDY    39  32  76 CALM      30.21R
MONUMENT HILL  CLOUDY    37  28  70 S7        30.21S
TRINIDAD       CLOUDY    41  30  65 W12       30.21F
$$

COZ042>045-048>051-090-091-270700-
...NORTHEAST COLORADO...

CITY           SKY/WX    TMP DP  RH WIND       PRES   REMARKS
GREELEY ARPT   CLOUDY    46  27  46 S6        30.17S
AKRON          CLOUDY    43  35  73 SE5       30.17F
BURLINGTON     CLOUDY    45  33  63 NE7       30.18R
WRAY           CLOUDY    42  30  62 E7        30.18F
STERLING       CLOUDY    41  34  75 CALM      30.17S
HOLYOKE        CLOUDY    41  30  65 SE5       30.19S
FORT MORGAN    CLOUDY    44  31  60 SE6       30.18S
$$

COZ086-089-092>099-270700-
...SOUTHEAST COLORADO...

CITY           SKY/WX    TMP DP  RH WIND       PRES   REMARKS
PUEBLO         PTCLDY    37  30  75 CALM      30.18S
LA JUNTA       PTCLDY    46  25  43 SE7       30.18F
LAMAR          MOCLDY    34  27  75 S7        30.18S WCI  28
SPRINGFIELD      N/A     39  27  62 CALM      30.20R
$$


USA.gov is the U.S. government's official web portal to all federal, state and local government web resources and services.